75000 - Paris

Modèle arome - 04/05/2026 03:00
Altitude : 28 - 131m

05/05/2026 à 11:58 (UTC)

Date (UTC!) Model Picto Température Min Max T850 T950 Humidité Précipitation Neige (proba) Pression Nuages Bas Nuages Moyen Nuages Haut Nuages Total Nuages Corrigés CAPE Iso Vent (dir) Vent (vitesse) Rafales (vitesse)
04/05 - 04:00 arome 14,70 14,70 15,02 6,54 12,14 86,57 0,00 (1h) 0,00 10,12 0,20 99,75 100,00 100,01 99,75 175,74 0,00 280,94 6,64 11,66
04/05 - 05:00 arome 14,47 14,46 14,69 6,64 12,15 85,56 0,00 (1h) 0,00 10,12 0,00 100,00 100,00 100,01 100,00 95,74 0,00 344,11 5,39 14,77
04/05 - 06:00 arome 15,10 14,48 15,10 6,15 11,35 82,09 0,00 (1h) 0,00 10,12 79,30 100,00 100,00 100,01 100,00 98,83 0,00 66,37 0,63 9,82
04/05 - 07:00 arome 15,57 15,15 15,63 5,65 10,95 82,29 0,00 (1h) 0,00 10,13 100,00 100,00 100,00 100,01 100,00 189,18 0,00 119,93 2,74 7,29
04/05 - 08:00 arome 15,61 15,49 15,69 5,63 11,05 84,02 0,09 (1h) 0,00 10,13 100,00 100,00 100,00 100,01 100,00 265,71 0,00 129,14 3,99 10,43
04/05 - 09:00 arome 14,95 14,94 15,68 5,77 10,88 87,64 1,91 (1h) 0,00 10,13 100,00 100,00 100,00 100,01 100,00 219,40 0,00 317,49 7,03 14,36
04/05 - 10:00 arome 15,60 14,87 15,60 5,40 11,07 85,18 5,47 (1h) 0,00 10,13 99,20 100,00 100,00 100,01 100,00 261,33 0,00 337,58 5,57 14,49
04/05 - 11:00 arome 16,26 15,61 16,26 5,57 11,23 80,55 0,35 (1h) 0,00 10,12 100,00 100,00 100,00 100,01 100,00 269,28 0,00 352,34 6,21 14,01
04/05 - 12:00 arome 16,86 16,27 16,87 5,86 11,71 77,56 0,01 (1h) 0,00 10,12 93,65 100,00 100,00 100,01 100,00 328,97 0,00 353,63 7,46 16,50
04/05 - 13:00 arome 17,60 16,88 17,60 5,94 12,32 72,98 0,00 (1h) 0,00 10,12 97,75 100,00 40,85 100,01 100,00 425,74 0,00 2,67 5,41 16,78
04/05 - 14:00 arome 17,05 16,90 17,75 5,94 12,51 79,22 1,42 (1h) 0,00 10,11 5,55 100,00 100,00 100,01 100,00 338,09 0,00 29,91 4,69 15,75
04/05 - 15:00 arome 17,10 17,01 17,43 6,12 12,20 78,81 0,12 (1h) 0,00 10,11 94,70 100,00 100,00 100,01 100,00 533,30 0,00 68,81 3,78 13,18
04/05 - 16:00 arome 15,98 15,98 16,94 6,79 12,23 80,41 1,62 (1h) 0,00 10,11 0,25 100,00 100,00 100,01 100,00 52,65 0,00 97,62 4,61 17,68
04/05 - 17:00 arome 16,18 15,93 16,19 6,23 12,42 76,84 1,45 (1h) 0,00 10,10 0,00 100,00 7,70 100,01 100,00 44,01 0,00 317,46 4,15 10,34
04/05 - 18:00 arome 16,06 16,06 16,38 6,07 11,98 77,43 0,16 (1h) 0,00 10,10 14,55 100,00 100,00 100,01 100,00 65,79 0,00 338,42 6,85 12,79
04/05 - 19:00 arome 15,76 15,77 16,06 6,36 11,99 87,47 0,45 (1h) 0,00 10,10 34,85 100,00 97,95 100,01 100,00 421,79 0,00 343,96 5,99 13,04
04/05 - 20:00 arome 15,61 15,56 15,76 6,34 12,13 85,96 0,08 (1h) 0,00 10,10 13,75 99,60 99,95 100,01 99,60 215,50 0,00 346,97 8,46 15,91
04/05 - 21:00 arome 15,23 15,23 15,64 6,34 11,55 82,50 0,01 (1h) 0,00 10,10 44,20 100,00 77,70 100,01 100,00 91,68 0,00 345,42 9,15 19,24
04/05 - 22:00 arome 15,07 15,07 15,25 5,78 11,89 84,54 0,00 (1h) 0,00 10,11 31,80 100,00 74,55 100,01 100,00 64,68 0,00 3,24 8,91 17,61
04/05 - 23:00 arome 14,54 14,54 15,04 6,08 12,01 87,04 0,01 (1h) 0,00 10,10 39,05 23,90 100,00 100,01 50,01 32,79 0,00 0,83 9,94 20,18
05/05 - 00:00 arome 14,38 14,38 14,55 6,21 11,41 86,76 0,00 (1h) 0,00 10,10 90,75 26,05 100,00 100,01 90,75 81,60 0,00 358,85 7,20 19,11
05/05 - 01:00 arome 14,28 14,28 14,43 5,76 11,40 91,35 0,00 (1h) 0,00 10,09 100,00 89,40 100,00 100,01 100,00 109,18 0,00 19,74 8,53 18,55
05/05 - 02:00 arome 14,08 14,08 14,27 5,88 11,20 92,75 1,07 (1h) 0,00 10,09 100,00 100,00 100,00 100,01 100,00 82,96 0,00 15,34 8,85 18,36
05/05 - 03:00 arome 13,45 13,45 14,09 6,07 10,72 94,28 0,00 (1h) 0,00 10,09 100,00 16,00 100,00 100,01 100,00 39,85 0,00 13,56 11,52 23,22
05/05 - 04:00 arome 12,78 12,78 13,43 5,85 10,67 95,40 1,14 (1h) 0,00 10,08 100,00 41,45 100,00 100,01 100,00 28,49 0,00 18,60 11,51 26,42
05/05 - 05:00 arome 12,65 12,64 12,78 6,23 10,52 95,63 0,00 (1h) 0,00 10,08 100,00 89,25 100,00 100,01 100,00 26,67 0,00 16,76 12,11 24,38
05/05 - 06:00 arome 12,99 12,65 12,99 5,63 10,44 92,74 0,00 (1h) 0,00 10,07 100,00 71,45 100,00 100,01 100,00 47,74 0,00 21,05 11,73 24,64
05/05 - 07:00 arome 13,05 12,98 13,05 5,57 10,26 92,36 0,01 (1h) 0,00 10,07 100,00 100,00 100,00 100,01 100,00 50,18 0,00 13,99 11,61 24,25
05/05 - 08:00 arome 13,09 13,04 13,13 5,48 9,96 92,35 0,02 (1h) 0,00 10,07 100,00 100,00 100,00 100,01 100,00 48,30 0,00 14,52 12,49 24,97
05/05 - 09:00 arome 13,23 13,10 13,23 5,70 10,05 92,21 0,02 (1h) 0,00 10,07 100,00 100,00 100,00 100,01 100,00 39,63 0,00 6,25 12,57 26,23
05/05 - 10:00 arome 13,36 13,23 13,36 6,01 10,13 91,21 1,38 (1h) 0,00 10,06 100,00 100,00 100,00 100,01 100,00 23,94 0,00 4,42 14,48 29,08
05/05 - 11:00 arome 13,84 13,34 13,84 6,19 10,16 88,71 5,85 (1h) 0,00 10,06 100,00 100,00 100,00 100,01 100,00 45,96 0,00 359,05 15,16 30,43
05/05 - 12:00 arome 14,19 13,86 14,20 6,08 10,27 87,53 4,70 (1h) 0,00 10,05 100,00 100,00 100,00 100,01 100,00 62,63 0,00 2,91 15,61 32,10
05/05 - 13:00 arome 14,09 14,09 14,23 5,75 10,16 87,61 2,94 (1h) 0,00 10,05 100,00 100,00 100,00 100,01 100,00 38,69 0,00 0,80 15,55 31,67
05/05 - 14:00 arome 14,08 14,02 14,14 5,77 10,17 87,58 4,45 (1h) 0,00 10,05 100,00 100,00 100,00 100,01 100,00 46,13 0,00 353,95 13,32 32,66
05/05 - 15:00 arome 14,22 14,07 14,25 5,72 10,30 87,07 4,42 (1h) 0,00 10,05 100,00 100,00 100,00 100,01 100,00 62,89 0,00 347,67 14,67 30,40
05/05 - 16:00 arome 14,15 14,14 14,30 5,08 10,15 86,32 4,74 (1h) 0,00 10,05 100,00 100,00 100,00 100,01 100,00 71,40 0,00 355,47 14,59 30,17
05/05 - 17:00 arome 14,18 14,13 14,22 4,97 10,20 86,74 3,92 (1h) 0,00 10,05 100,00 100,00 100,00 100,01 100,00 105,27 0,00 355,84 7,94 29,30
05/05 - 18:00 arome 13,62 13,62 14,17 4,72 10,18 85,11 3,12 (1h) 0,00 10,05 99,60 100,00 100,00 100,01 100,00 36,34 0,00 3,43 14,46 30,21
05/05 - 19:00 arome 13,33 13,34 13,62 4,58 9,54 89,21 3,39 (1h) 0,00 10,06 100,00 100,00 100,00 100,01 100,00 74,76 0,00 327,37 11,28 28,87
05/05 - 20:00 arome 12,86 12,86 13,32 4,22 9,00 87,12 2,50 (1h) 0,00 10,06 100,00 100,00 100,00 100,01 100,00 36,95 0,00 338,46 13,04 34,17
05/05 - 21:00 arome 12,08 12,07 12,85 4,04 8,23 87,83 2,24 (1h) 0,00 10,07 96,35 100,00 100,00 100,01 100,00 16,67 0,00 324,16 13,28 29,83